Wetterdaten: Dienstag, 12.01.2016
Datum Zeit Auen-Temp. Temp gefhlt Luftfeuchte Luftdruck Regen Wind Richtung Richtung Taupunkt Windben
12.01.2016 00:00 2,9 C 2,0 C 72 % 997,1 hPa 0,0 mm 10,4 km/h (2 Bft) W 270 -1,6 C 22,8 km/h (4 Bft)
12.01.2016 00:05 2,8 C 2,1 C 71 % 997,1 hPa 0,0 mm 9,6 km/h (2 Bft) W-SW 247 -1,9 C 14,5 km/h (3 Bft)
12.01.2016 00:10 3,0 C 2,3 C 71 % 997,1 hPa 0,0 mm 9,3 km/h (2 Bft) W 270 -1,7 C 9,8 km/h (2 Bft)
12.01.2016 00:15 2,9 C 2,2 C 71 % 997,1 hPa 0,0 mm 9,1 km/h (2 Bft) W 270 -1,8 C 9,8 km/h (2 Bft)
12.01.2016 00:20 3,0 C 2,1 C 70 % 997,1 hPa 0,0 mm 10,1 km/h (2 Bft) W 270 -1,9 C 11,7 km/h (2 Bft)
12.01.2016 00:25 2,9 C 2,0 C 70 % 997,1 hPa 0,0 mm 10,4 km/h (2 Bft) W 270 -2,0 C 36,3 km/h (5 Bft)
12.01.2016 00:30 2,8 C 2,0 C 70 % 997,1 hPa 0,0 mm 9,1 km/h (2 Bft) W 270 -2,1 C 18,6 km/h (3 Bft)
12.01.2016 00:35 2,6 C 1,9 C 70 % 997,1 hPa 0,0 mm 8,0 km/h (2 Bft) W-SW 247 -2,3 C 7,5 km/h (2 Bft)
12.01.2016 00:40 2,5 C 1,9 C 70 % 997,0 hPa 0,0 mm 6,5 km/h (2 Bft) W 270 -2,4 C 6,2 km/h (2 Bft)
12.01.2016 00:45 2,4 C 1,8 C 71 % 997,0 hPa 0,0 mm 6,5 km/h (2 Bft) W-SW 247 -2,3 C 9,1 km/h (2 Bft)
12.01.2016 00:50 2,5 C 1,8 C 70 % 997,0 hPa 0,0 mm 6,7 km/h (2 Bft) SW 225 -2,4 C 8,0 km/h (2 Bft)
12.01.2016 00:55 2,5 C 1,8 C 69 % 997,0 hPa 0,0 mm 7,8 km/h (2 Bft) NW 315 -2,6 C 7,5 km/h (2 Bft)
12.01.2016 01:00 2,4 C 1,7 C 69 % 997,0 hPa 0,0 mm 7,0 km/h (2 Bft) W 270 -2,7 C 7,0 km/h (2 Bft)
12.01.2016 01:05 2,2 C 1,7 C 70 % 997,0 hPa 0,0 mm 5,4 km/h (1 Bft) W 270 -2,7 C 7,3 km/h (2 Bft)
12.01.2016 01:10 2,1 C 1,7 C 70 % 997,0 hPa 0,0 mm 4,9 km/h (1 Bft) W-NW 292 -2,8 C 2,8 km/h (1 Bft)
12.01.2016 01:15 2,1 C 1,7 C 70 % 997,0 hPa 0,0 mm 4,9 km/h (1 Bft) W 270 -2,8 C 7,5 km/h (2 Bft)
12.01.2016 01:20 1,8 C 1,5 C 70 % 996,8 hPa 0,0 mm 4,9 km/h (1 Bft) W-SW 247 -3,1 C 4,1 km/h (1 Bft)
12.01.2016 01:25 1,9 C 1,4 C 71 % 996,8 hPa 0,0 mm 5,4 km/h (1 Bft) S-SW 202 -2,8 C 6,0 km/h (2 Bft)
12.01.2016 01:30 2,0 C 1,5 C 71 % 996,8 hPa 0,0 mm 5,4 km/h (1 Bft) O-SO 112 -2,7 C 7,8 km/h (2 Bft)
12.01.2016 01:35 2,1 C 1,5 C 71 % 996,8 hPa 0,0 mm 5,7 km/h (1 Bft) W 270 -2,6 C 7,0 km/h (2 Bft)
12.01.2016 01:40 2,1 C 1,6 C 71 % 997,2 hPa 0,0 mm 5,7 km/h (1 Bft) W-SW 247 -2,6 C 8,0 km/h (2 Bft)
12.01.2016 01:45 2,5 C 1,8 C 69 % 997,2 hPa 0,0 mm 8,0 km/h (2 Bft) SW 225 -2,6 C 15,0 km/h (3 Bft)
12.01.2016 01:50 2,4 C 1,6 C 69 % 997,2 hPa 0,0 mm 9,8 km/h (2 Bft) SW 225 -2,7 C 16,3 km/h (3 Bft)
12.01.2016 01:55 2,2 C 1,6 C 69 % 997,2 hPa 0,0 mm 7,8 km/h (2 Bft) W-SW 247 -2,9 C 4,1 km/h (1 Bft)
12.01.2016 02:00 1,9 C 1,6 C 69 % 997,0 hPa 0,0 mm 5,7 km/h (1 Bft) W 270 -3,2 C 3,6 km/h (1 Bft)
12.01.2016 02:05 2,1 C 1,5 C 69 % 997,0 hPa 0,0 mm 6,2 km/h (2 Bft) W 270 -3,0 C 15,0 km/h (3 Bft)
12.01.2016 02:10 2,1 C 1,5 C 69 % 997,0 hPa 0,0 mm 6,5 km/h (2 Bft) W-SW 247 -3,0 C 3,6 km/h (1 Bft)
12.01.2016 02:15 2,1 C 1,5 C 71 % 997,0 hPa 0,0 mm 7,0 km/h (2 Bft) NW 315 -2,6 C 7,8 km/h (2 Bft)
12.01.2016 02:20 2,0 C 1,5 C 71 % 997,3 hPa 0,0 mm 6,2 km/h (2 Bft) W-NW 292 -2,7 C 6,0 km/h (2 Bft)
12.01.2016 02:25 2,1 C 1,5 C 71 % 997,3 hPa 0,0 mm 6,2 km/h (2 Bft) S 180 -2,6 C 7,5 km/h (2 Bft)
12.01.2016 02:30 2,3 C 1,5 C 71 % 997,3 hPa 0,0 mm 7,5 km/h (2 Bft) SW 225 -2,4 C 8,0 km/h (2 Bft)
12.01.2016 02:35 2,1 C 1,4 C 71 % 997,3 hPa 0,0 mm 7,5 km/h (2 Bft) W-SW 247 -2,6 C 5,4 km/h (1 Bft)
12.01.2016 02:40 2,1 C 1,6 C 71 % 997,5 hPa 0,0 mm 6,2 km/h (2 Bft) W-SW 247 -2,6 C 12,2 km/h (2 Bft)
12.01.2016 02:45 2,4 C 1,8 C 71 % 997,5 hPa 0,0 mm 6,7 km/h (2 Bft) W 270 -2,3 C 8,0 km/h (2 Bft)
12.01.2016 02:50 2,7 C 1,9 C 70 % 997,5 hPa 0,0 mm 8,8 km/h (2 Bft) W-SW 247 -2,2 C 9,6 km/h (2 Bft)
12.01.2016 02:55 2,8 C 2,2 C 69 % 997,5 hPa 0,0 mm 8,5 km/h (2 Bft) W-SW 247 -2,3 C 7,0 km/h (2 Bft)
12.01.2016 03:00 3,0 C 2,5 C 69 % 997,8 hPa 0,0 mm 8,3 km/h (2 Bft) W 270 -2,1 C 21,8 km/h (4 Bft)
12.01.2016 03:05 3,2 C 2,5 C 68 % 997,8 hPa 0,0 mm 9,8 km/h (2 Bft) W-SW 247 -2,1 C 8,5 km/h (2 Bft)
12.01.2016 03:10 3,2 C 2,5 C 68 % 997,8 hPa 0,0 mm 11,9 km/h (2 Bft) W 270 -2,1 C 15,8 km/h (3 Bft)
12.01.2016 03:15 3,0 C 2,4 C 68 % 997,8 hPa 0,0 mm 10,4 km/h (2 Bft) W-NW 292 -2,3 C 10,4 km/h (2 Bft)
12.01.2016 03:20 2,9 C 2,4 C 68 % 997,6 hPa 0,0 mm 8,5 km/h (2 Bft) W 270 -2,4 C 8,5 km/h (2 Bft)
12.01.2016 03:25 2,9 C 2,3 C 68 % 997,6 hPa 0,0 mm 9,6 km/h (2 Bft) N-NO 22 -2,4 C 18,4 km/h (3 Bft)
12.01.2016 03:30 2,9 C 2,3 C 68 % 997,6 hPa 0,0 mm 9,6 km/h (2 Bft) W-SW 247 -2,4 C 6,0 km/h (2 Bft)
12.01.2016 03:35 2,9 C 2,4 C 69 % 997,6 hPa 0,0 mm 8,3 km/h (2 Bft) W 270 -2,2 C 11,1 km/h (2 Bft)
12.01.2016 03:40 3,0 C 2,4 C 69 % 997,7 hPa 0,0 mm 8,8 km/h (2 Bft) W-SW 247 -2,1 C 25,6 km/h (4 Bft)
12.01.2016 03:45 3,0 C 2,4 C 68 % 997,7 hPa 0,0 mm 12,9 km/h (3 Bft) W-SW 247 -2,3 C 20,2 km/h (4 Bft)
12.01.2016 03:50 2,8 C 2,1 C 68 % 997,7 hPa 0,0 mm 14,0 km/h (3 Bft) W-NW 292 -2,5 C 11,9 km/h (2 Bft)
12.01.2016 03:55 2,7 C 1,8 C 69 % 997,7 hPa 0,0 mm 11,9 km/h (2 Bft) W-SW 247 -2,4 C 10,4 km/h (2 Bft)
12.01.2016 04:00 2,6 C 1,8 C 69 % 997,5 hPa 0,0 mm 9,3 km/h (2 Bft) W 270 -2,5 C 4,4 km/h (1 Bft)
12.01.2016 04:01 2,4 C 2,0 C 70 % 997,5 hPa 0,0 mm 6,0 km/h (2 Bft) SW 225 -2,5 C 14,0 km/h (3 Bft)
12.01.2016 04:02 2,4 C 2,0 C 70 % 997,5 hPa 0,0 mm 6,0 km/h (2 Bft) SW 225 -2,5 C 14,0 km/h (3 Bft)
12.01.2016 04:05 2,4 C 2,0 C 70 % 997,5 hPa 0,0 mm 6,0 km/h (2 Bft) SW 225 -2,5 C 14,0 km/h (3 Bft)
12.01.2016 04:10 2,8 C 2,2 C 70 % 997,5 hPa 0,0 mm 7,8 km/h (2 Bft) W-SW 247 -2,1 C 12,4 km/h (3 Bft)
12.01.2016 04:15 2,8 C 1,9 C 70 % 997,5 hPa 0,0 mm 11,7 km/h (2 Bft) W-NW 292 -2,1 C 9,6 km/h (2 Bft)
12.01.2016 04:20 2,8 C 1,9 C 71 % 998,0 hPa 0,0 mm 12,2 km/h (2 Bft) W 270 -1,9 C 18,1 km/h (3 Bft)
12.01.2016 04:25 2,6 C 1,7 C 73 % 998,0 hPa 0,0 mm 11,1 km/h (2 Bft) W-SW 247 -1,7 C 16,1 km/h (3 Bft)
12.01.2016 04:30 2,4 C 1,7 C 73 % 998,0 hPa 0,0 mm 9,3 km/h (2 Bft) S 180 -1,9 C 11,7 km/h (2 Bft)
12.01.2016 04:35 2,4 C 1,7 C 73 % 998,0 hPa 0,0 mm 8,0 km/h (2 Bft) SW 225 -1,9 C 18,1 km/h (3 Bft)
12.01.2016 04:40 2,5 C 1,8 C 73 % 998,0 hPa 0,0 mm 8,5 km/h (2 Bft) W 270 -1,8 C 14,0 km/h (3 Bft)
12.01.2016 04:45 2,5 C 1,6 C 72 % 998,0 hPa 0,0 mm 10,6 km/h (2 Bft) W-SW 247 -2,0 C 16,3 km/h (3 Bft)
12.01.2016 04:50 2,6 C 1,6 C 72 % 998,0 hPa 0,0 mm 11,1 km/h (2 Bft) W-SW 247 -1,9 C 15,5 km/h (3 Bft)
12.01.2016 04:55 2,7 C 1,8 C 71 % 998,0 hPa 0,0 mm 11,4 km/h (2 Bft) W-SW 247 -2,0 C 9,3 km/h (2 Bft)
12.01.2016 05:00 2,9 C 2,0 C 70 % 998,0 hPa 0,0 mm 11,9 km/h (2 Bft) SW 225 -2,0 C 19,7 km/h (3 Bft)
12.01.2016 05:05 2,7 C 2,0 C 69 % 998,0 hPa 0,0 mm 9,1 km/h (2 Bft) W-SW 247 -2,4 C 6,5 km/h (2 Bft)
12.01.2016 05:10 3,0 C 2,1 C 69 % 998,0 hPa 0,0 mm 10,9 km/h (2 Bft) W 270 -2,1 C 22,0 km/h (4 Bft)
12.01.2016 05:15 3,2 C 2,2 C 68 % 998,0 hPa 0,0 mm 12,4 km/h (3 Bft) W-NW 292 -2,1 C 11,9 km/h (2 Bft)
12.01.2016 05:20 3,1 C 2,3 C 68 % 997,9 hPa 0,0 mm 11,7 km/h (2 Bft) S 180 -2,2 C 13,2 km/h (3 Bft)
12.01.2016 05:25 3,1 C 2,3 C 67 % 997,9 hPa 0,0 mm 10,4 km/h (2 Bft) W 270 -2,4 C 14,2 km/h (3 Bft)
12.01.2016 05:30 3,4 C 2,6 C 67 % 997,9 hPa 0,0 mm 10,9 km/h (2 Bft) W-NW 292 -2,1 C 14,5 km/h (3 Bft)
12.01.2016 05:35 3,4 C 2,8 C 66 % 997,9 hPa 0,0 mm 12,7 km/h (3 Bft) W 270 -2,3 C 14,0 km/h (3 Bft)
12.01.2016 05:40 3,5 C 2,7 C 66 % 998,0 hPa 0,0 mm 11,9 km/h (2 Bft) W 270 -2,2 C 20,2 km/h (4 Bft)
12.01.2016 05:45 3,5 C 2,8 C 66 % 998,0 hPa 0,0 mm 11,7 km/h (2 Bft) S 180 -2,2 C 15,8 km/h (3 Bft)
12.01.2016 05:50 3,5 C 2,8 C 66 % 998,0 hPa 0,0 mm 11,4 km/h (2 Bft) W-SW 247 -2,2 C 17,9 km/h (3 Bft)
12.01.2016 05:55 3,5 C 2,8 C 66 % 998,0 hPa 0,0 mm 11,7 km/h (2 Bft) W-SW 247 -2,2 C 15,5 km/h (3 Bft)
12.01.2016 06:00 3,3 C 2,8 C 66 % 998,3 hPa 0,0 mm 12,9 km/h (3 Bft) W-NW 292 -2,4 C 12,4 km/h (3 Bft)
12.01.2016 06:05 3,0 C 2,4 C 68 % 998,3 hPa 0,0 mm 13,7 km/h (3 Bft) W 270 -2,3 C 20,5 km/h (4 Bft)
12.01.2016 06:10 2,7 C 2,1 C 72 % 998,3 hPa 0,0 mm 12,7 km/h (3 Bft) W-NW 292 -1,8 C 22,0 km/h (4 Bft)
12.01.2016 06:15 2,6 C 1,9 C 74 % 998,3 hPa 0,0 mm 12,4 km/h (3 Bft) W-SW 247 -1,6 C 31,1 km/h (5 Bft)
12.01.2016 06:20 2,5 C 1,5 C 75 % 998,7 hPa 0,0 mm 12,2 km/h (2 Bft) NW 315 -1,5 C 11,1 km/h (2 Bft)
12.01.2016 06:25 2,4 C 1,5 C 75 % 998,7 hPa 0,0 mm 12,2 km/h (2 Bft) W-SW 247 -1,6 C 9,1 km/h (2 Bft)
12.01.2016 06:30 2,5 C 1,5 C 75 % 998,7 hPa 0,0 mm 12,4 km/h (3 Bft) SW 225 -1,5 C 16,1 km/h (3 Bft)
12.01.2016 06:35 2,6 C 1,7 C 74 % 998,7 hPa 0,0 mm 11,7 km/h (2 Bft) NW 315 -1,6 C 12,9 km/h (3 Bft)
12.01.2016 06:40 2,7 C 1,8 C 73 % 998,5 hPa 0,0 mm 11,7 km/h (2 Bft) W 270 -1,6 C 12,2 km/h (2 Bft)
12.01.2016 06:45 2,8 C 1,8 C 73 % 998,5 hPa 0,0 mm 12,4 km/h (3 Bft) NW 315 -1,5 C 9,3 km/h (2 Bft)
12.01.2016 06:50 2,8 C 2,1 C 72 % 998,5 hPa 0,0 mm 13,2 km/h (3 Bft) W-NW 292 -1,7 C 18,6 km/h (3 Bft)
12.01.2016 06:55 2,7 C 2,0 C 73 % 998,5 hPa 0,0 mm 13,7 km/h (3 Bft) W-NW 292 -1,6 C 15,5 km/h (3 Bft)
12.01.2016 07:00 2,7 C 1,9 C 73 % 998,3 hPa 0,0 mm 11,9 km/h (2 Bft) W 270 -1,6 C 8,3 km/h (2 Bft)
12.01.2016 07:05 2,7 C 1,9 C 73 % 998,3 hPa 0,0 mm 11,1 km/h (2 Bft) W-NW 292 -1,6 C 10,6 km/h (2 Bft)
12.01.2016 07:10 2,7 C 2,0 C 74 % 998,3 hPa 0,0 mm 10,1 km/h (2 Bft) W-SW 247 -1,5 C 8,5 km/h (2 Bft)
12.01.2016 07:15 2,6 C 2,2 C 74 % 998,3 hPa 0,0 mm 7,3 km/h (2 Bft) W-SW 247 -1,6 C 8,5 km/h (2 Bft)
12.01.2016 07:20 2,6 C 2,2 C 74 % 998,6 hPa 0,0 mm 6,5 km/h (2 Bft) NW 315 -1,6 C 5,7 km/h (1 Bft)
12.01.2016 07:25 2,4 C 1,8 C 75 % 998,6 hPa 0,0 mm 6,7 km/h (2 Bft) W 270 -1,6 C 3,4 km/h (1 Bft)
12.01.2016 07:30 2,3 C 1,8 C 75 % 998,6 hPa 0,0 mm 6,0 km/h (2 Bft) W-NW 292 -1,7 C 4,1 km/h (1 Bft)
12.01.2016 07:35 2,1 C 1,6 C 76 % 998,6 hPa 0,0 mm 5,7 km/h (1 Bft) W-SW 247 -1,7 C 14,2 km/h (3 Bft)
12.01.2016 07:40 1,9 C 1,2 C 77 % 998,7 hPa 0,0 mm 7,5 km/h (2 Bft) W 270 -1,7 C 18,9 km/h (3 Bft)
12.01.2016 07:45 1,7 C 0,9 C 78 % 998,7 hPa 0,0 mm 8,0 km/h (2 Bft) W-SW 247 -1,7 C 10,9 km/h (2 Bft)
12.01.2016 07:50 1,6 C 0,8 C 78 % 998,7 hPa 0,0 mm 7,3 km/h (2 Bft) S-SW 202 -1,8 C 12,7 km/h (3 Bft)
12.01.2016 07:55 1,4 C 0,7 C 79 % 998,7 hPa 0,0 mm 6,7 km/h (2 Bft) NW 315 -1,8 C 19,2 km/h (3 Bft)
12.01.2016 08:00 1,4 C 0,7 C 80 % 998,8 hPa 0,7 mm 7,0 km/h (2 Bft) W-SW 247 -1,7 C 6,5 km/h (2 Bft)
12.01.2016 08:05 1,5 C 0,6 C 82 % 998,8 hPa 0,0 mm 8,8 km/h (2 Bft) NO 45 -1,2 C 10,6 km/h (2 Bft)
12.01.2016 08:10 1,6 C 0,6 C 83 % 998,8 hPa 0,0 mm 9,6 km/h (2 Bft) W-NW 292 -1,0 C 17,3 km/h (3 Bft)
12.01.2016 08:15 1,6 C 0,6 C 84 % 998,8 hPa 0,0 mm 9,8 km/h (2 Bft) W 270 -0,8 C 14,8 km/h (3 Bft)
12.01.2016 08:20 1,6 C 0,6 C 84 % 999,1 hPa 0,0 mm 10,1 km/h (2 Bft) W 270 -0,8 C 11,7 km/h (2 Bft)
12.01.2016 08:25 1,6 C 0,7 C 85 % 999,1 hPa 0,0 mm 9,6 km/h (2 Bft) W 270 -0,6 C 9,1 km/h (2 Bft)
12.01.2016 08:30 1,6 C 0,7 C 85 % 999,1 hPa 0,0 mm 9,3 km/h (2 Bft) W-SW 247 -0,6 C 10,9 km/h (2 Bft)
12.01.2016 08:35 1,7 C 0,7 C 85 % 999,1 hPa 0,0 mm 9,3 km/h (2 Bft) W-SW 247 -0,5 C 22,8 km/h (4 Bft)
12.01.2016 08:40 1,8 C 0,9 C 84 % 998,8 hPa 0,0 mm 8,3 km/h (2 Bft) W 270 -0,6 C 12,7 km/h (3 Bft)
12.01.2016 08:45 1,9 C 1,0 C 84 % 998,8 hPa 0,0 mm 7,8 km/h (2 Bft) W 270 -0,5 C 11,1 km/h (2 Bft)
12.01.2016 08:50 1,9 C 1,2 C 83 % 998,8 hPa 0,0 mm 6,7 km/h (2 Bft) W-NW 292 -0,7 C 4,9 km/h (1 Bft)
12.01.2016 08:55 2,0 C 1,3 C 83 % 998,8 hPa 0,0 mm 6,2 km/h (2 Bft) W 270 -0,6 C 8,0 km/h (2 Bft)
12.01.2016 09:00 2,1 C 1,4 C 82 % 999,2 hPa 0,0 mm 6,7 km/h (2 Bft) W 270 -0,6 C 12,9 km/h (3 Bft)
12.01.2016 09:05 2,3 C 1,4 C 82 % 999,2 hPa 0,0 mm 8,8 km/h (2 Bft) SW 225 -0,4 C 8,3 km/h (2 Bft)
12.01.2016 09:10 2,2 C 1,1 C 81 % 999,2 hPa 0,0 mm 11,4 km/h (2 Bft) W 270 -0,7 C 23,8 km/h (4 Bft)
12.01.2016 09:15 1,7 C 0,9 C 83 % 999,2 hPa 0,0 mm 12,4 km/h (3 Bft) W 270 -0,9 C 16,6 km/h (3 Bft)
12.01.2016 09:20 1,5 C 0,4 C 83 % 999,6 hPa 0,0 mm 11,9 km/h (2 Bft) O-SO 112 -1,1 C 7,3 km/h (2 Bft)
12.01.2016 09:25 1,3 C 0,4 C 84 % 999,6 hPa 0,0 mm 9,3 km/h (2 Bft) W-SW 247 -1,1 C 8,0 km/h (2 Bft)
12.01.2016 09:30 1,2 C 0,4 C 85 % 999,6 hPa 0,0 mm 8,3 km/h (2 Bft) W 270 -1,0 C 16,3 km/h (3 Bft)
12.01.2016 09:35 1,1 C 0,3 C 85 % 999,6 hPa 0,7 mm 7,5 km/h (2 Bft) W 270 -1,1 C 7,3 km/h (2 Bft)
12.01.2016 09:40 1,0 C 0,3 C 85 % 999,7 hPa 0,0 mm 6,7 km/h (2 Bft) W-SW 247 -1,2 C 5,7 km/h (1 Bft)
12.01.2016 09:45 1,0 C 0,3 C 86 % 999,7 hPa 0,0 mm 6,5 km/h (2 Bft) NW 315 -1,1 C 3,9 km/h (1 Bft)
12.01.2016 09:50 1,0 C 0,2 C 86 % 999,7 hPa 0,0 mm 7,5 km/h (2 Bft) W 270 -1,1 C 12,2 km/h (2 Bft)
12.01.2016 09:55 1,1 C 0,0 C 87 % 999,7 hPa 0,0 mm 10,9 km/h (2 Bft) NW 315 -0,8 C 21,8 km/h (4 Bft)
12.01.2016 10:00 1,2 C 0,3 C 88 % 999,8 hPa 0,0 mm 12,7 km/h (3 Bft) S 180 -0,6 C 22,3 km/h (4 Bft)
12.01.2016 10:01 1,3 C 0,1 C 88 % 999,8 hPa 0,7 mm 11,9 km/h (2 Bft) NW 315 -0,5 C 24,1 km/h (4 Bft)
12.01.2016 10:03 1,3 C 0,1 C 88 % 999,8 hPa 0,0 mm 11,9 km/h (2 Bft) NW 315 -0,5 C 24,1 km/h (4 Bft)
12.01.2016 10:05 1,3 C 0,1 C 88 % 999,8 hPa 0,0 mm 11,9 km/h (2 Bft) NW 315 -0,5 C 24,1 km/h (4 Bft)
12.01.2016 10:10 1,5 C 0,6 C 88 % 999,8 hPa 0,0 mm 12,4 km/h (3 Bft) SW 225 -0,3 C 16,8 km/h (3 Bft)
12.01.2016 10:15 1,7 C 0,8 C 88 % 999,8 hPa 0,0 mm 15,5 km/h (3 Bft) W-NW 292 -0,1 C 11,4 km/h (2 Bft)
12.01.2016 10:20 1,8 C 0,8 C 88 % 1000,3 hPa 0,0 mm 15,3 km/h (3 Bft) SW 225 0,0 C 21,5 km/h (4 Bft)
12.01.2016 10:25 1,9 C 1,0 C 88 % 1000,3 hPa 0,0 mm 13,5 km/h (3 Bft) W 270 0,1 C 12,9 km/h (3 Bft)
12.01.2016 10:30 1,7 C 0,7 C 88 % 1000,3 hPa 0,0 mm 12,2 km/h (2 Bft) W 270 -0,1 C 15,0 km/h (3 Bft)
12.01.2016 10:35 1,7 C 0,7 C 88 % 1000,3 hPa 0,0 mm 11,1 km/h (2 Bft) W-SW 247 -0,1 C 16,1 km/h (3 Bft)
12.01.2016 10:40 1,7 C 0,8 C 88 % 1001,2 hPa 0,0 mm 10,6 km/h (2 Bft) W-SW 247 -0,1 C 16,8 km/h (3 Bft)
12.01.2016 10:45 1,7 C 0,8 C 88 % 1001,2 hPa 0,0 mm 10,1 km/h (2 Bft) W-NW 292 -0,1 C 23,0 km/h (4 Bft)
12.01.2016 10:50 1,7 C 0,8 C 88 % 1001,2 hPa 0,0 mm 10,4 km/h (2 Bft) NW 315 -0,1 C 11,4 km/h (2 Bft)
12.01.2016 10:55 1,5 C 0,8 C 88 % 1001,2 hPa 0,0 mm 13,2 km/h (3 Bft) W-NW 292 -0,3 C 16,1 km/h (3 Bft)
12.01.2016 11:00 1,1 C 0,3 C 88 % 1002,2 hPa 0,0 mm 15,0 km/h (3 Bft) W-NW 292 -0,7 C 21,8 km/h (4 Bft)
12.01.2016 11:05 0,8 C -0,1 C 89 % 1002,2 hPa 0,0 mm 16,6 km/h (3 Bft) W 270 -0,8 C 24,9 km/h (4 Bft)
12.01.2016 11:10 0,8 C -0,2 C 89 % 1002,2 hPa 0,0 mm 16,6 km/h (3 Bft) W-NW 292 -0,8 C 23,6 km/h (4 Bft)
12.01.2016 11:15 0,8 C -0,2 C 90 % 1002,2 hPa 0,7 mm 15,3 km/h (3 Bft) NW 315 -0,6 C 25,9 km/h (4 Bft)
12.01.2016 11:20 0,9 C -0,1 C 90 % 1002,5 hPa 0,0 mm 14,0 km/h (3 Bft) W-NW 292 -0,6 C 12,9 km/h (3 Bft)
12.01.2016 11:25 0,9 C -0,2 C 91 % 1002,5 hPa 0,0 mm 11,7 km/h (2 Bft) NW 315 -0,4 C 17,3 km/h (3 Bft)
12.01.2016 11:30 0,9 C 0,0 C 91 % 1002,5 hPa 0,0 mm 8,8 km/h (2 Bft) W-NW 292 -0,4 C 4,4 km/h (1 Bft)
12.01.2016 11:35 1,0 C 0,2 C 84 % 1002,5 hPa 0,0 mm 8,5 km/h (2 Bft) W-NW 292 -1,4 C 10,6 km/h (2 Bft)
12.01.2016 11:40 1,0 C 0,3 C 84 % 1002,7 hPa 0,7 mm 8,8 km/h (2 Bft) W-SW 247 -1,4 C 9,8 km/h (2 Bft)
12.01.2016 11:45 1,1 C 0,4 C 84 % 1002,7 hPa 0,0 mm 8,8 km/h (2 Bft) W-SW 247 -1,3 C 13,2 km/h (3 Bft)
12.01.2016 11:50 1,1 C 0,2 C 91 % 1002,7 hPa 0,0 mm 9,3 km/h (2 Bft) W-NW 292 -0,2 C 9,8 km/h (2 Bft)
12.01.2016 11:55 0,9 C 0,0 C 91 % 1002,7 hPa 0,0 mm 9,1 km/h (2 Bft) W 270 -0,4 C 9,1 km/h (2 Bft)
12.01.2016 12:00 0,8 C 0,0 C 91 % 1002,8 hPa 0,0 mm 8,8 km/h (2 Bft) W 270 -0,5 C 6,5 km/h (2 Bft)
12.01.2016 12:05 0,9 C 0,2 C 85 % 1002,8 hPa 0,0 mm 8,0 km/h (2 Bft) W-NW 292 -1,3 C 9,8 km/h (2 Bft)
12.01.2016 12:10 0,9 C 0,5 C 85 % 1002,8 hPa 0,0 mm 6,5 km/h (2 Bft) W 270 -1,3 C 10,9 km/h (2 Bft)
12.01.2016 12:15 0,9 C 0,4 C 85 % 1002,8 hPa 0,0 mm 6,2 km/h (2 Bft) W 270 -1,3 C 7,0 km/h (2 Bft)
12.01.2016 12:20 1,0 C 0,5 C 85 % 1003,0 hPa 0,0 mm 6,5 km/h (2 Bft) W-SW 247 -1,2 C 9,1 km/h (2 Bft)
12.01.2016 12:25 1,0 C 0,3 C 85 % 1003,0 hPa 0,7 mm 9,1 km/h (2 Bft) W-SW 247 -1,2 C 27,7 km/h (4 Bft)
12.01.2016 12:30 1,1 C 0,4 C 85 % 1003,0 hPa 0,0 mm 9,8 km/h (2 Bft) W 270 -1,1 C 6,2 km/h (2 Bft)
12.01.2016 12:35 1,4 C 0,8 C 85 % 1003,0 hPa 0,0 mm 10,4 km/h (2 Bft) W 270 -0,8 C 9,1 km/h (2 Bft)
12.01.2016 12:40 1,6 C 0,7 C 85 % 1003,2 hPa 0,0 mm 11,9 km/h (2 Bft) W 270 -0,6 C 17,9 km/h (3 Bft)
12.01.2016 12:45 1,6 C 1,1 C 85 % 1003,2 hPa 0,0 mm 13,2 km/h (3 Bft) W 270 -0,6 C 36,5 km/h (5 Bft)
12.01.2016 12:50 1,7 C 1,1 C 85 % 1003,2 hPa 0,0 mm 13,2 km/h (3 Bft) W 270 -0,5 C 8,0 km/h (2 Bft)
12.01.2016 12:55 1,8 C 1,1 C 85 % 1003,2 hPa 0,0 mm 11,7 km/h (2 Bft) W-SW 247 -0,4 C 19,2 km/h (3 Bft)
12.01.2016 13:00 1,8 C 1,1 C 90 % 1003,2 hPa 0,0 mm 10,9 km/h (2 Bft) W 270 0,3 C 21,0 km/h (4 Bft)
12.01.2016 13:05 1,7 C 0,8 C 90 % 1003,2 hPa 0,0 mm 10,9 km/h (2 Bft) W-SW 247 0,2 C 21,8 km/h (4 Bft)
12.01.2016 13:10 1,8 C 0,9 C 90 % 1003,2 hPa 0,0 mm 11,4 km/h (2 Bft) W 270 0,3 C 19,7 km/h (3 Bft)
12.01.2016 13:15 1,8 C 0,9 C 90 % 1003,2 hPa 0,0 mm 11,4 km/h (2 Bft) W-SW 247 0,3 C 11,9 km/h (2 Bft)
12.01.2016 13:20 1,7 C 0,8 C 89 % 1003,4 hPa 0,0 mm 10,6 km/h (2 Bft) W 270 0,1 C 17,6 km/h (3 Bft)
12.01.2016 13:25 1,9 C 1,1 C 85 % 1003,4 hPa 0,0 mm 9,6 km/h (2 Bft) W-SW 247 -0,3 C 10,1 km/h (2 Bft)
12.01.2016 13:30 2,0 C 1,0 C 89 % 1003,4 hPa 0,0 mm 11,7 km/h (2 Bft) S 180 0,4 C 11,1 km/h (2 Bft)
12.01.2016 13:35 2,1 C 1,3 C 85 % 1003,4 hPa 0,0 mm 11,9 km/h (2 Bft) NW 315 -0,2 C 17,3 km/h (3 Bft)
12.01.2016 13:40 2,2 C 1,5 C 85 % 1003,3 hPa 0,0 mm 10,6 km/h (2 Bft) NW 315 -0,1 C 15,8 km/h (3 Bft)
12.01.2016 13:45 2,3 C 1,8 C 85 % 1003,3 hPa 0,0 mm 10,1 km/h (2 Bft) W 270 0,0 C 11,7 km/h (2 Bft)
12.01.2016 13:50 2,5 C 1,8 C 85 % 1003,3 hPa 0,0 mm 11,1 km/h (2 Bft) W-SW 247 0,2 C 16,8 km/h (3 Bft)
12.01.2016 13:55 2,6 C 2,0 C 88 % 1003,3 hPa 0,0 mm 13,5 km/h (3 Bft) W 270 0,8 C 18,4 km/h (3 Bft)
12.01.2016 14:00 2,4 C 1,7 C 87 % 1003,6 hPa 0,0 mm 16,6 km/h (3 Bft) W 270 0,5 C 14,0 km/h (3 Bft)
12.01.2016 14:05 2,2 C 1,4 C 86 % 1003,6 hPa 0,0 mm 16,3 km/h (3 Bft) W-SW 247 0,1 C 39,4 km/h (6 Bft)
12.01.2016 14:10 2,3 C 1,5 C 87 % 1003,6 hPa 0,0 mm 13,2 km/h (3 Bft) W-SW 247 0,4 C 18,1 km/h (3 Bft)
12.01.2016 14:15 2,3 C 1,5 C 87 % 1003,6 hPa 0,0 mm 12,9 km/h (3 Bft) W-SW 247 0,4 C 10,4 km/h (2 Bft)
12.01.2016 14:20 2,3 C 1,3 C 87 % 1003,8 hPa 0,0 mm 12,9 km/h (3 Bft) W 270 0,4 C 26,2 km/h (4 Bft)
12.01.2016 14:25 2,2 C 1,5 C 87 % 1003,8 hPa 0,0 mm 12,4 km/h (3 Bft) W-SW 247 0,3 C 14,8 km/h (3 Bft)
12.01.2016 14:30 2,2 C 1,4 C 87 % 1003,8 hPa 0,0 mm 12,7 km/h (3 Bft) W 270 0,3 C 12,4 km/h (3 Bft)
12.01.2016 14:35 2,3 C 1,7 C 84 % 1003,8 hPa 0,0 mm 12,4 km/h (3 Bft) W-SW 247 -0,1 C 14,8 km/h (3 Bft)
12.01.2016 14:40 2,5 C 1,9 C 84 % 1003,5 hPa 0,0 mm 13,2 km/h (3 Bft) W 270 0,1 C 16,1 km/h (3 Bft)
12.01.2016 14:45 2,7 C 2,1 C 84 % 1003,5 hPa 0,0 mm 12,2 km/h (2 Bft) W-NW 292 0,3 C 24,3 km/h (4 Bft)
12.01.2016 14:50 2,7 C 2,2 C 84 % 1003,5 hPa 0,0 mm 12,2 km/h (2 Bft) W-NW 292 0,3 C 10,9 km/h (2 Bft)
12.01.2016 14:55 2,6 C 2,2 C 86 % 1003,5 hPa 0,0 mm 12,4 km/h (3 Bft) W-SW 247 0,5 C 21,8 km/h (4 Bft)
12.01.2016 15:00 2,6 C 1,9 C 86 % 1003,7 hPa 0,0 mm 12,2 km/h (2 Bft) W 270 0,5 C 7,5 km/h (2 Bft)
12.01.2016 15:05 2,7 C 2,1 C 86 % 1003,7 hPa 0,0 mm 10,9 km/h (2 Bft) W-NW 292 0,6 C 12,9 km/h (3 Bft)
12.01.2016 15:10 2,7 C 2,2 C 86 % 1003,7 hPa 0,0 mm 9,6 km/h (2 Bft) W-SW 247 0,6 C 15,0 km/h (3 Bft)
12.01.2016 15:15 2,6 C 2,0 C 85 % 1003,7 hPa 0,0 mm 10,6 km/h (2 Bft) W 270 0,3 C 24,9 km/h (4 Bft)
12.01.2016 15:20 2,6 C 1,8 C 85 % 1003,8 hPa 0,0 mm 11,9 km/h (2 Bft) W-SW 247 0,3 C 21,2 km/h (4 Bft)
12.01.2016 15:25 2,8 C 2,2 C 83 % 1003,8 hPa 0,0 mm 13,2 km/h (3 Bft) W-SW 247 0,2 C 11,1 km/h (2 Bft)
12.01.2016 15:30 2,8 C 2,3 C 83 % 1003,8 hPa 0,0 mm 13,2 km/h (3 Bft) W-NW 292 0,2 C 19,2 km/h (3 Bft)
12.01.2016 15:35 2,7 C 1,9 C 84 % 1003,8 hPa 0,0 mm 11,7 km/h (2 Bft) NW 315 0,3 C 11,7 km/h (2 Bft)
12.01.2016 15:40 2,6 C 2,1 C 84 % 1003,8 hPa 0,0 mm 12,9 km/h (3 Bft) SW 225 0,2 C 19,2 km/h (3 Bft)
12.01.2016 15:45 2,2 C 1,6 C 84 % 1003,8 hPa 0,7 mm 12,9 km/h (3 Bft) W 270 -0,2 C 14,2 km/h (3 Bft)
12.01.2016 15:50 2,0 C 1,3 C 85 % 1003,8 hPa 0,0 mm 13,7 km/h (3 Bft) W 270 -0,3 C 35,2 km/h (5 Bft)
12.01.2016 15:55 1,6 C 0,6 C 86 % 1003,8 hPa 0,0 mm 12,2 km/h (2 Bft) W 270 -0,5 C 35,2 km/h (5 Bft)
12.01.2016 16:00 1,4 C 0,4 C 86 % 1004,3 hPa 0,0 mm 11,9 km/h (2 Bft) SW 225 -0,7 C 21,8 km/h (4 Bft)
12.01.2016 16:01 1,3 C 0,3 C 87 % 1004,3 hPa 0,0 mm 11,1 km/h (2 Bft) W-NW 292 -0,6 C 12,9 km/h (3 Bft)
12.01.2016 16:04 1,3 C 0,3 C 87 % 1004,3 hPa 0,0 mm 11,1 km/h (2 Bft) W-NW 292 -0,6 C 12,9 km/h (3 Bft)
12.01.2016 16:05 1,3 C 0,3 C 87 % 1004,3 hPa 0,0 mm 11,1 km/h (2 Bft) W-NW 292 -0,6 C 12,9 km/h (3 Bft)
12.01.2016 16:10 1,2 C 0,2 C 87 % 1004,3 hPa 0,0 mm 10,1 km/h (2 Bft) W-NW 292 -0,7 C 13,7 km/h (3 Bft)
12.01.2016 16:15 1,2 C 0,2 C 88 % 1004,3 hPa 0,0 mm 9,3 km/h (2 Bft) SW 225 -0,6 C 14,0 km/h (3 Bft)
12.01.2016 16:20 1,3 C 0,4 C 88 % 1004,5 hPa 0,0 mm 8,8 km/h (2 Bft) W-NW 292 -0,5 C 10,9 km/h (2 Bft)
12.01.2016 16:25 1,3 C 0,4 C 88 % 1004,5 hPa 0,0 mm 8,8 km/h (2 Bft) W 270 -0,5 C 8,8 km/h (2 Bft)
12.01.2016 16:30 1,3 C 0,5 C 88 % 1004,5 hPa 0,0 mm 8,3 km/h (2 Bft) W-SW 247 -0,5 C 9,1 km/h (2 Bft)
12.01.2016 16:35 1,4 C 0,3 C 89 % 1004,5 hPa 0,0 mm 10,4 km/h (2 Bft) W 270 -0,2 C 17,6 km/h (3 Bft)
12.01.2016 16:40 1,5 C 0,4 C 89 % 1004,6 hPa 0,0 mm 11,4 km/h (2 Bft) W 270 -0,1 C 11,1 km/h (2 Bft)
12.01.2016 16:45 1,3 C 0,3 C 89 % 1004,6 hPa 0,0 mm 11,4 km/h (2 Bft) SW 225 -0,3 C 7,8 km/h (2 Bft)
12.01.2016 16:50 1,2 C 0,2 C 89 % 1004,6 hPa 0,0 mm 11,1 km/h (2 Bft) SW 225 -0,4 C 9,1 km/h (2 Bft)
12.01.2016 16:55 1,1 C 0,1 C 89 % 1004,6 hPa 0,0 mm 10,1 km/h (2 Bft) W-SW 247 -0,5 C 8,3 km/h (2 Bft)
12.01.2016 17:00 1,1 C 0,2 C 89 % 1004,7 hPa 0,7 mm 8,5 km/h (2 Bft) SO 135 -0,5 C 8,5 km/h (2 Bft)
12.01.2016 17:05 1,1 C 0,3 C 89 % 1004,7 hPa 0,0 mm 7,8 km/h (2 Bft) W 270 -0,5 C 6,7 km/h (2 Bft)
12.01.2016 17:10 1,1 C 0,4 C 89 % 1004,7 hPa 0,0 mm 6,7 km/h (2 Bft) N-NW 337 -0,5 C 5,7 km/h (1 Bft)
12.01.2016 17:15 1,1 C 0,5 C 89 % 1004,7 hPa 0,0 mm 6,5 km/h (2 Bft) W-SW 247 -0,5 C 9,8 km/h (2 Bft)
12.01.2016 17:20 1,0 C 0,4 C 89 % 1005,0 hPa 0,0 mm 6,5 km/h (2 Bft) NW 315 -0,6 C 5,2 km/h (1 Bft)
12.01.2016 17:25 1,0 C 0,5 C 89 % 1005,0 hPa 0,0 mm 5,7 km/h (1 Bft) S 180 -0,6 C 2,6 km/h (1 Bft)
12.01.2016 17:30 1,0 C 0,6 C 89 % 1005,0 hPa 0,0 mm 4,7 km/h (1 Bft) NW 315 -0,6 C 4,4 km/h (1 Bft)
12.01.2016 17:35 1,0 C 0,8 C 89 % 1005,0 hPa 0,0 mm 3,4 km/h (1 Bft) W-NW 292 -0,6 C 2,8 km/h (1 Bft)
12.01.2016 17:40 0,9 C 0,7 C 90 % 1005,0 hPa 0,0 mm 2,8 km/h (1 Bft) W 270 -0,6 C 5,2 km/h (1 Bft)
12.01.2016 17:45 1,0 C 0,8 C 89 % 1005,0 hPa 0,0 mm 2,8 km/h (1 Bft) SW 225 -0,6 C 6,2 km/h (2 Bft)
12.01.2016 17:50 0,9 C 0,7 C 90 % 1005,0 hPa 0,0 mm 3,6 km/h (1 Bft) W 270 -0,6 C 4,9 km/h (1 Bft)
12.01.2016 17:55 0,9 C 0,3 C 90 % 1005,0 hPa 0,7 mm 6,5 km/h (2 Bft) W 270 -0,6 C 8,5 km/h (2 Bft)
12.01.2016 18:00 1,1 C 0,3 C 90 % 1005,5 hPa 0,0 mm 8,0 km/h (2 Bft) W-SW 247 -0,4 C 13,5 km/h (3 Bft)
12.01.2016 18:05 1,0 C 0,1 C 90 % 1005,5 hPa 0,0 mm 8,8 km/h (2 Bft) W 270 -0,5 C 10,6 km/h (2 Bft)
12.01.2016 18:10 1,0 C 0,1 C 90 % 1005,5 hPa 0,0 mm 8,3 km/h (2 Bft) SW 225 -0,5 C 6,2 km/h (2 Bft)
12.01.2016 18:15 0,9 C 0,3 C 91 % 1005,5 hPa 0,0 mm 6,0 km/h (2 Bft) W-NW 292 -0,4 C 8,3 km/h (2 Bft)
12.01.2016 18:20 0,9 C 0,2 C 91 % 1005,3 hPa 0,0 mm 7,0 km/h (2 Bft) W-NW 292 -0,4 C 8,0 km/h (2 Bft)
12.01.2016 18:25 0,9 C 0,2 C 91 % 1005,3 hPa 0,0 mm 7,3 km/h (2 Bft) W-SW 247 -0,4 C 7,3 km/h (2 Bft)
12.01.2016 18:30 0,9 C 0,3 C 91 % 1005,3 hPa 0,0 mm 6,2 km/h (2 Bft) W 270 -0,4 C 8,0 km/h (2 Bft)
12.01.2016 18:35 0,9 C 0,2 C 91 % 1005,3 hPa 0,0 mm 6,2 km/h (2 Bft) W-SW 247 -0,4 C 6,5 km/h (2 Bft)
12.01.2016 18:40 0,8 C 0,1 C 91 % 1005,0 hPa 0,0 mm 6,2 km/h (2 Bft) W-SW 247 -0,5 C 4,1 km/h (1 Bft)
12.01.2016 18:45 0,7 C 0,1 C 90 % 1005,0 hPa 0,0 mm 5,4 km/h (1 Bft) W-SW 247 -0,7 C 10,9 km/h (2 Bft)
12.01.2016 18:50 0,8 C 0,0 C 90 % 1005,0 hPa 0,0 mm 6,2 km/h (2 Bft) SW 225 -0,6 C 7,0 km/h (2 Bft)
12.01.2016 18:55 0,9 C -0,1 C 90 % 1005,0 hPa 0,0 mm 8,0 km/h (2 Bft) SW 225 -0,6 C 10,4 km/h (2 Bft)
12.01.2016 19:00 0,8 C -0,1 C 90 % 1005,0 hPa 0,0 mm 7,3 km/h (2 Bft) SW 225 -0,6 C 6,5 km/h (2 Bft)
12.01.2016 19:05 0,7 C -0,1 C 89 % 1005,0 hPa 0,0 mm 6,0 km/h (2 Bft) W-SW 247 -0,9 C 9,3 km/h (2 Bft)
12.01.2016 19:10 0,8 C -0,1 C 89 % 1005,0 hPa 0,0 mm 6,5 km/h (2 Bft) W-SW 247 -0,8 C 8,5 km/h (2 Bft)
12.01.2016 19:15 0,9 C 0,0 C 89 % 1005,0 hPa 0,0 mm 6,7 km/h (2 Bft) W-SW 247 -0,7 C 10,9 km/h (2 Bft)
12.01.2016 19:20 0,9 C 0,1 C 89 % 1005,0 hPa 0,0 mm 6,0 km/h (2 Bft) W-SW 247 -0,7 C 9,8 km/h (2 Bft)
12.01.2016 19:25 1,1 C 0,1 C 88 % 1005,0 hPa 0,0 mm 7,3 km/h (2 Bft) W-SW 247 -0,7 C 7,3 km/h (2 Bft)
12.01.2016 19:30 1,1 C 0,1 C 88 % 1005,0 hPa 0,0 mm 7,3 km/h (2 Bft) W-SW 247 -0,7 C 7,5 km/h (2 Bft)
12.01.2016 19:35 1,2 C 0,4 C 87 % 1005,0 hPa 0,0 mm 6,0 km/h (2 Bft) W-SW 247 -0,7 C 9,3 km/h (2 Bft)
12.01.2016 19:36 1,2 C 0,4 C 87 % 1005,2 hPa 0,0 mm 6,5 km/h (2 Bft) W-SW 247 -0,7 C 8,8 km/h (2 Bft)
12.01.2016 19:41 1,3 C 0,4 C 86 % 1005,2 hPa 0,0 mm 7,5 km/h (2 Bft) W-SW 247 -0,8 C 6,7 km/h (2 Bft)
12.01.2016 19:44 1,3 C 0,4 C 86 % 1005,2 hPa 0,0 mm 7,5 km/h (2 Bft) W-SW 247 -0,8 C 6,7 km/h (2 Bft)
12.01.2016 19:45 1,3 C 0,4 C 86 % 1005,2 hPa 0,0 mm 7,5 km/h (2 Bft) W-SW 247 -0,8 C 6,7 km/h (2 Bft)
12.01.2016 19:50 1,2 C 0,3 C 85 % 1005,2 hPa 0,0 mm 8,3 km/h (2 Bft) W 270 -1,0 C 11,1 km/h (2 Bft)
12.01.2016 19:55 1,2 C 0,4 C 85 % 1005,2 hPa 0,0 mm 7,5 km/h (2 Bft) W 270 -1,0 C 4,1 km/h (1 Bft)
12.01.2016 20:00 1,2 C 0,3 C 85 % 1005,4 hPa 0,0 mm 8,0 km/h (2 Bft) W-SW 247 -1,0 C 18,6 km/h (3 Bft)
12.01.2016 20:05 1,2 C 0,2 C 85 % 1005,4 hPa 0,0 mm 9,8 km/h (2 Bft) NW 315 -1,0 C 39,4 km/h (6 Bft)
12.01.2016 20:10 1,1 C -0,1 C 86 % 1005,4 hPa 0,0 mm 11,9 km/h (2 Bft) W-NW 292 -1,0 C 22,8 km/h (4 Bft)
12.01.2016 20:15 0,9 C 0,0 C 87 % 1005,4 hPa 0,0 mm 15,0 km/h (3 Bft) SW 225 -1,0 C 17,1 km/h (3 Bft)
12.01.2016 20:20 1,0 C 0,0 C 87 % 1005,9 hPa 0,0 mm 14,5 km/h (3 Bft) W 270 -0,9 C 14,0 km/h (3 Bft)
12.01.2016 20:25 1,0 C 0,0 C 87 % 1005,9 hPa 0,0 mm 12,4 km/h (3 Bft) W 270 -0,9 C 11,1 km/h (2 Bft)
12.01.2016 20:30 0,9 C -0,2 C 87 % 1005,9 hPa 0,0 mm 11,1 km/h (2 Bft) SW 225 -1,0 C 16,1 km/h (3 Bft)
12.01.2016 20:35 1,0 C -0,1 C 87 % 1005,9 hPa 0,0 mm 10,1 km/h (2 Bft) W 270 -0,9 C 11,7 km/h (2 Bft)
12.01.2016 20:40 1,0 C -0,1 C 87 % 1006,0 hPa 0,0 mm 9,8 km/h (2 Bft) W 270 -0,9 C 8,5 km/h (2 Bft)
12.01.2016 20:45 0,9 C 0,0 C 87 % 1006,0 hPa 0,0 mm 8,0 km/h (2 Bft) W 270 -1,0 C 13,5 km/h (3 Bft)
12.01.2016 20:50 1,0 C 0,1 C 86 % 1006,0 hPa 0,0 mm 7,8 km/h (2 Bft) W-SW 247 -1,1 C 12,7 km/h (3 Bft)
12.01.2016 20:55 1,0 C -0,1 C 86 % 1006,0 hPa 0,0 mm 9,3 km/h (2 Bft) W-NW 292 -1,1 C 8,8 km/h (2 Bft)
12.01.2016 21:00 0,9 C -0,1 C 86 % 1005,9 hPa 0,0 mm 8,5 km/h (2 Bft) W-NW 292 -1,2 C 5,7 km/h (1 Bft)
12.01.2016 21:05 0,8 C -0,2 C 86 % 1005,9 hPa 0,0 mm 7,8 km/h (2 Bft) W 270 -1,3 C 10,9 km/h (2 Bft)
12.01.2016 21:10 0,9 C -0,3 C 85 % 1005,9 hPa 0,0 mm 9,1 km/h (2 Bft) W 270 -1,3 C 11,9 km/h (2 Bft)
12.01.2016 21:15 0,8 C -0,3 C 85 % 1005,9 hPa 0,0 mm 9,6 km/h (2 Bft) W 270 -1,4 C 7,0 km/h (2 Bft)
12.01.2016 21:20 0,8 C -0,3 C 85 % 1005,8 hPa 0,0 mm 8,8 km/h (2 Bft) W 270 -1,4 C 20,7 km/h (4 Bft)
12.01.2016 21:25 0,7 C -0,2 C 85 % 1005,8 hPa 0,0 mm 8,3 km/h (2 Bft) W 270 -1,5 C 14,0 km/h (3 Bft)
12.01.2016 21:30 0,7 C -0,3 C 84 % 1005,8 hPa 0,0 mm 8,0 km/h (2 Bft) W 270 -1,7 C 10,6 km/h (2 Bft)
12.01.2016 21:35 0,7 C -0,2 C 84 % 1005,8 hPa 0,0 mm 7,5 km/h (2 Bft) W 270 -1,7 C 7,0 km/h (2 Bft)
12.01.2016 21:40 0,8 C -0,2 C 84 % 1005,7 hPa 0,0 mm 8,3 km/h (2 Bft) W 270 -1,6 C 15,5 km/h (3 Bft)
12.01.2016 21:45 0,9 C -0,1 C 83 % 1005,7 hPa 0,0 mm 9,1 km/h (2 Bft) W 270 -1,7 C 11,7 km/h (2 Bft)
12.01.2016 21:50 1,1 C 0,0 C 82 % 1005,7 hPa 0,0 mm 10,6 km/h (2 Bft) W-SW 247 -1,6 C 17,3 km/h (3 Bft)
12.01.2016 21:55 1,0 C 0,1 C 82 % 1005,7 hPa 0,0 mm 9,8 km/h (2 Bft) W-SW 247 -1,7 C 10,4 km/h (2 Bft)
12.01.2016 22:00 1,1 C 0,3 C 82 % 1006,0 hPa 0,0 mm 8,3 km/h (2 Bft) NW 315 -1,6 C 13,2 km/h (3 Bft)
12.01.2016 22:01 1,2 C 0,3 C 81 % 1006,0 hPa 0,0 mm 10,1 km/h (2 Bft) W-SW 247 -1,7 C 7,3 km/h (2 Bft)
12.01.2016 22:05 1,2 C 0,3 C 81 % 1006,0 hPa 0,0 mm 10,1 km/h (2 Bft) W-SW 247 -1,7 C 7,3 km/h (2 Bft)
12.01.2016 22:10 1,2 C 0,5 C 81 % 1006,0 hPa 0,0 mm 12,4 km/h (3 Bft) W-SW 247 -1,7 C 7,3 km/h (2 Bft)
12.01.2016 22:15 1,1 C 0,2 C 81 % 1006,0 hPa 0,0 mm 11,1 km/h (2 Bft) W-NW 292 -1,8 C 8,8 km/h (2 Bft)
12.01.2016 22:20 1,1 C 0,4 C 82 % 1006,3 hPa 0,0 mm 8,0 km/h (2 Bft) W 270 -1,6 C 10,4 km/h (2 Bft)
12.01.2016 22:25 1,0 C 0,5 C 82 % 1006,3 hPa 0,0 mm 6,5 km/h (2 Bft) W-NW 292 -1,7 C 5,2 km/h (1 Bft)
12.01.2016 22:30 1,1 C 0,5 C 82 % 1006,3 hPa 0,0 mm 6,7 km/h (2 Bft) SW 225 -1,6 C 9,3 km/h (2 Bft)
12.01.2016 22:35 1,1 C 0,5 C 82 % 1006,3 hPa 0,0 mm 7,0 km/h (2 Bft) W-NW 292 -1,6 C 9,1 km/h (2 Bft)
12.01.2016 22:40 1,1 C 0,7 C 82 % 1006,5 hPa 0,0 mm 6,0 km/h (2 Bft) S-SW 202 -1,6 C 3,6 km/h (1 Bft)
12.01.2016 22:45 1,1 C 0,6 C 82 % 1006,5 hPa 0,0 mm 6,2 km/h (2 Bft) W-SW 247 -1,6 C 10,9 km/h (2 Bft)
12.01.2016 22:50 1,2 C 0,7 C 82 % 1006,5 hPa 0,0 mm 6,7 km/h (2 Bft) W 270 -1,5 C 11,9 km/h (2 Bft)
12.01.2016 22:55 1,1 C 0,6 C 82 % 1006,5 hPa 0,0 mm 6,7 km/h (2 Bft) W-SW 247 -1,6 C 7,0 km/h (2 Bft)
12.01.2016 23:00 1,1 C 0,7 C 82 % 1006,4 hPa 0,0 mm 6,0 km/h (2 Bft) W 270 -1,6 C 7,5 km/h (2 Bft)
12.01.2016 23:05 1,1 C 0,7 C 82 % 1006,4 hPa 0,0 mm 6,0 km/h (2 Bft) W 270 -1,6 C 6,2 km/h (2 Bft)
12.01.2016 23:10 1,1 C 0,6 C 82 % 1006,4 hPa 0,0 mm 6,7 km/h (2 Bft) W-SW 247 -1,6 C 10,6 km/h (2 Bft)
12.01.2016 23:15 1,1 C 0,7 C 82 % 1006,4 hPa 0,0 mm 6,5 km/h (2 Bft) W 270 -1,6 C 7,5 km/h (2 Bft)
12.01.2016 23:20 1,2 C 0,6 C 81 % 1006,7 hPa 0,0 mm 7,3 km/h (2 Bft) W-NW 292 -1,7 C 20,5 km/h (4 Bft)
12.01.2016 23:25 1,3 C 0,7 C 81 % 1006,7 hPa 0,0 mm 8,0 km/h (2 Bft) W-SW 247 -1,6 C 8,0 km/h (2 Bft)
12.01.2016 23:30 1,3 C 0,7 C 80 % 1006,7 hPa 0,0 mm 8,5 km/h (2 Bft) W 270 -1,8 C 10,6 km/h (2 Bft)
12.01.2016 23:35 1,3 C 0,6 C 80 % 1006,7 hPa 0,0 mm 9,1 km/h (2 Bft) W-NW 292 -1,8 C 13,7 km/h (3 Bft)
12.01.2016 23:40 1,2 C 0,3 C 80 % 1007,0 hPa 0,0 mm 10,6 km/h (2 Bft) W-SW 247 -1,9 C 9,8 km/h (2 Bft)
12.01.2016 23:45 1,1 C 0,1 C 81 % 1007,0 hPa 0,0 mm 12,2 km/h (2 Bft) W-NW 292 -1,8 C 6,7 km/h (2 Bft)
12.01.2016 23:50 1,0 C 0,1 C 82 % 1007,0 hPa 0,0 mm 10,4 km/h (2 Bft) NW 315 -1,7 C 8,5 km/h (2 Bft)
12.01.2016 23:55 0,9 C 0,2 C 83 % 1007,0 hPa 0,0 mm 8,3 km/h (2 Bft) W 270 -1,7 C 14,8 km/h (3 Bft)
_ Min-Zeit 21:35 21:30 06:00 01:35 - 17:45 - - 02:00 17:25
Minimum _ 0,7 C -0,3 C 66 % 996,8 hPa - 2,8 km/h (1 Bft) - - -3,2 C 2,6 km/h (1 Bft)
_ Max-Zeit 05:55 06:00 18:40 23:55 17:55 14:00 - - 13:55 20:05
Maximum _ 3,5 C 2,8 C 91 % 1007,0 hPa 0,7 mm 16,6 km/h
W (3 Bft)
- - 0,8 C 39,4 km/h
NW (6 Bft)
Durchschnitt _ 1,8 C 1,0 C 81 % 1001,7 hPa #6,2 mm 9,5 km/h (2 Bft) W - -1,2 C 12,7 km/h (3 Bft)